Location: Izdebno
(52.6670°N, 16.2170°E)
Time: 14:10:10
(UTC+02:00)

A-11 Canister half - Pass Details

Date: 23 February 2024
Orbit: 1525 x 1683 km, 47.3° (Epoch: 24 April)

Event Time Altitude Azimuth Distance (km) Brightness Sun altitude
Rises 20:02:14 0° 199° (SSW) 4,761 11.6 -24.8°
Reaches altitude 10° 20:06:01 10° 187° (S) 3,755 10.9 -25.4°
Enters shadow 20:10:15 22° 163° (SSE) 2,926 10.1 -26.0°
